Αρχική σελίδα
METAR-TAF:

METAR-TAF

Αεροδρόμια :

Colonel James Jabara Airport

Ουιτσίτα, Κάνσας, Ηνωμένες Πολιτείες Αμερικής

γεωγραφικό πλάτος: 37-44-59N, γεωγραφικό μήκος: 097-13-08W, υψόμετρο: 432 μ

Παρών καιρός

Η αναφορά έγινε 47 λεπτά πριν, στις 15:54 UTC
Άνεμος 14 kt από Α με ριπές μέχρι 20 kt
Θερμοκρασία 9°C
Υγρασία 40%
Πίεση 1030 hPa
Ορατότητα: 16.1 χλμ
Καθαρός ουρανός

METAR: KAAO 181554Z AUTO 09014G20KT 10SM CLR 09/M04 A3041 RMK AO2 SLP305 T00941039

Χρόνος: 11:41 (16:41 UTC)


TAF: λείπει

Μετεωρολογικές αναφορές και προγνώσεις για περισσότερα από 4000 αεροδρόμια (δελτία METAR και TAF).

Οι διαθέσιμοι σταθμοί απεικονίζονται στο χάρτη με κίτρινες και κόκκινες κουκκίδες.

Μετακινήστε το ποντίκι πάνω από τις κουκκίδες για να δείτε το όνομα του σταθμού.

Στη συνέχεια, κάντε κλικ για να δείτε τις μετεωρολογικές αναφορές και τις προγνώσεις καιρού.

Για να αλλάξετε το χάρτη: κάντε κλικ στα πράσινα κουμπιά με τον μαύρο σταυρό για να ζουμάρετε, στο πράσινο κουμπί με την παύλα για να αφαιρέσετε το ζουμ ή στα πράσινα βέλη για να αντιπαραβάλλετε χάρτες.


METAR-TAF: